星链-5291 (STARLINK-5291 )

导读

STARLINK-5291是美国太空探索技术公司(SpaceX)星链(Starlink)互联网星座中的一颗卫星,于2023年1月19日发射入轨。星链项目旨在通过低地球轨道部署大量卫星,为全球尤其是偏远地区提供高速、低延迟的宽带互联网接入服务,STARLINK-5291的入轨进一步拓展了星链星座的覆盖能力与网络容量,支撑全球卫星互联网服务的稳定运行。

基本信息
目录编号:
55273
目录名称:
STARLINK-5291
国际标识:
2023-010E
轨道中心:
EARTH
卫星名称:
星链-5291
卫星全名:
星链-5291 (STARLINK-5291 )
卫星状态:
在轨 (已飞行1325 天)
发射日期:
2023-01-19 UTC
国别 :
美国 (US)
星等 :
--
轨道信息
数据来源 国际轨道数据
星历时间: 2026-09-05T13:38:14+0800
11小时前
查看轨道信息
半长轴: 6950.207km
偏心率: 0.0003204
轨道倾角: 69.999°
近地点辐角 269.654°
升交点赤经 311.619°
平近点角 90.425°
近地点: 569.843km
远地点: 574.297km
周期: 96.107分钟
每日圈数: 14.983257
详细信息
固有亮度:
5
最大亮度:
2.5
卫星平台:
Starlink v1.5
覆盖范围:
全球
运营商:
太空探索技术公司
运营商所在国:
美国
制造商(研发单位):
太空探索技术公司
制造商所在国:
美国
使用方式:
暂无
卫星简介
星链(Starlink)计划是由太空探索技术公司(SpaceX)提出的一个巨型低轨卫星互联网星座项目,计划在2019年至2024年间在太空搭建由约1.2万颗卫星组成的“星链”网络,其中1584颗将部署在地球上空550千米处的近地轨道,并从2020年开始工作。该卫星仍在工作。
2D轨道图
3D轨道图
轨道高度分析图
轨道倾角分析图
轨道综合分析图
查看轨道综合分析图